Hourly Data Report for August 02, 2013

All times are specified in Local Standard Time (LST). Add 1 hour to adjust for Daylight Saving Time where and when it is observed.

VICTORIA INTL A
BRITISH COLUMBIA

48°38'50.000" N
123°25'33.000" W
19.50 m
1018621
71799
YYJ

Download Data

Hourly Data (August 2013)
Hourly Data Report for August 2, 2013
Temp Definition
°C
Dew Point Temp Definition
°C
Rel Hum Definition
%
Wind Dir Definition
10's deg

Wind Spd Definition
km/h
Visibility Definition
km
Stn Press Definition
kPa
Hmdx Definition


Wind Chill Definition


Weather Definition


TIME
00:00 Legend Double Dagger 14.8 12.0 83 24 5 48.3 101.41     LegendNANA
01:00 Legend Double Dagger 15.7 11.5 76 32 12 48.3 101.44     Mostly Cloudy
02:00 Legend Double Dagger 15.9 11.7 76 28 17 48.3 101.44     LegendNANA
03:00 Legend Double Dagger 15.8 11.6 76 30 12 48.3 101.46     LegendNANA
04:00 Legend Double Dagger 15.0 12.4 84 31 18 48.3 101.48     Mostly Cloudy
05:00 Legend Double Dagger 14.8 12.9 88 27 6 32.2 101.49     Rain
06:00 Legend Double Dagger 14.8 13.0 89 21 4 32.2 101.55     LegendNANA
07:00 Legend Double Dagger 15.1 12.8 86 23 5 48.3 101.56     Cloudy
08:00 Legend Double Dagger 13.9 12.8 93 15 9 48.3 101.60     LegendNANA
09:00 Legend Double Dagger 13.9 13.0 94 13 9 48.3 101.64     LegendNANA
10:00 Legend Double Dagger 14.1 13.2 94 12 10 48.3 101.68     Cloudy
11:00 Legend Double Dagger 13.9 13.3 96 11 9 32.2 101.71     Rain
12:00 Legend Double Dagger 14.4 13.6 95 12 11 19.3 101.73     Rain
13:00 Legend Double Dagger 14.0 13.5 97 13 12 19.3 101.76     Rain
14:00 Legend Double Dagger 13.8 13.2 96 11 12 32.2 101.77     LegendNANA
15:00 Legend Double Dagger 14.0 13.2 95 12 13 32.2 101.76     LegendNANA
16:00 Legend Double Dagger 14.4 13.5 94 12 10 32.2 101.74     Cloudy
17:00 Legend Double Dagger 14.2 12.9 92 10 9 48.3 101.74     LegendNANA
18:00 Legend Double Dagger 13.8 12.5 92 12 12 48.3 101.73     LegendNANA
19:00 Legend Double Dagger 13.7 12.6 93 11 7 48.3 101.76     Cloudy
20:00 Legend Double Dagger 13.9 12.8 93 8 4 48.3 101.80     LegendNANA
21:00 Legend Double Dagger 13.4 12.5 94 11 7 19.3 101.79     LegendNANA
22:00 Legend Double Dagger 13.0 12.1 94 13 6 19.3 101.83     Cloudy
23:00 Legend Double Dagger 13.3 12.2 93 9 4 19.3 101.81     LegendNANA

Notes on Data Quality.

Legend

  • E = Estimated
  • M = Missing
  • NA = Not Available
  • ‡ = Partner data that is not subject to review by the National Climate Archives
Date modified: